[[[{"header":{"parameterUnit":"kt","parameterCategory":2,"dx":1,"dy":1,"la1":30.253999710083008,"la2":30.299108505249023,"lo1":-89.0895004272461,"lo2":-89.04439544677734,"nx":28,"ny":28,"refTime":"2022-09-30T21:00:00:Z","depth":"0","parameterNumber":2,"parameterNumberName":"U-component_of_CURRENTS"},"data":[-0.2363,-0.2302,-0.2341,-0.239,-0.2411,-0.2218,-0.211,-0.1864,-0.1594,-0.0995,-0.0452,-0.0156,0.0309,0.0724,0.0731,0.0494,0.02,0.0098,-0.0054,-0.0242,-0.0318,-0.0391,-0.026,0.0331,0.0331,0.0153,0.0152,0.0152,-0.2468,-0.2479,-0.2489,-0.2551,-0.257,-0.26,-0.2572,-0.2415,-0.2204,-0.1937,-0.1633,-0.0876,-0.0514,-0.0348,-0.0057,-0.0121,-0.0431,-0.026,-0.0482,-0.0541,-0.075,-0.0609,-0.0083,-0.0083,-0.0083,-0.0083,-0.0083,-0.0083,-0.2645,-0.2629,-0.2648,-0.2678,-0.2711,-0.2757,-0.269,-0.2707,-0.2665,-0.244,-0.2405,-0.1938,-0.152,-0.1137,-0.1183,-0.0981,-0.1254,-0.0958,-0.1034,-0.1188,-0.1055,-0.1237,-0.0902,-0.0904,-0.0907,-0.0909,-0.091,0,-0.2749,-0.2783,-0.28,-0.2824,-0.2847,-0.2902,-0.2948,-0.2986,-0.3043,-0.298,-0.28,-0.2636,-0.2346,-0.199,-0.1768,-0.1712,-0.1902,-0.1821,-0.1769,-0.1512,-0.1562,-0.1546,-0.1969,-0.1757,-0.1765,-0.177,-0.1774,-0.1777,-0.2849,-0.2852,-0.2939,-0.2942,-0.2975,-0.3039,-0.3044,-0.3166,-0.3172,-0.3159,-0.3114,-0.3014,-0.2798,-0.2598,-0.2422,-0.2273,-0.232,-0.2014,-0.2017,-0.1881,-0.1908,-0.2032,-0.2032,-0.1859,-0.1849,-0.184,-0.1833,0,-0.2897,-0.2938,-0.2967,-0.3045,-0.3072,-0.3102,-0.3193,-0.3191,-0.3268,-0.3232,-0.3246,-0.3225,-0.3094,-0.3057,-0.3005,-0.2897,-0.2676,-0.2656,-0.2472,-0.2411,-0.1996,-0.2033,-0.1918,-0.1887,-0.2369,-0.2361,-0.2354,0,-0.2966,-0.298,-0.3049,-0.3058,-0.3096,-0.3151,-0.3185,-0.3211,-0.3255,-0.3225,-0.3271,-0.3205,-0.3248,-0.3178,-0.3149,-0.2937,-0.3099,-0.2804,-0.2773,-0.2642,-0.2603,-0.2509,-0.2538,-0.3123,-0.3123,-0.3123,-0.3123,0,-0.2994,-0.304,-0.3056,-0.3072,-0.3126,-0.315,-0.3185,-0.3206,-0.3223,-0.3243,-0.3255,-0.324,-0.3233,-0.3219,-0.3137,-0.3176,-0.3096,-0.3162,-0.2835,-0.2816,-0.2663,-0.2624,-0.2439,-0.3123,-0.3123,-0.3123,-0.3123,0,-0.3027,-0.305,-0.3069,-0.3118,-0.3131,-0.3154,-0.3189,-0.32,-0.3205,-0.3211,-0.3194,-0.3182,-0.3179,-0.3145,-0.3135,-0.3135,-0.3106,-0.3097,-0.3097,-0.2807,-0.278,-0.2639,-0.2498,-0.2395,-0.31,-0.31,-0.31,0,-0.3042,-0.3062,-0.3081,-0.3109,-0.3123,-0.3147,-0.3158,-0.3171,-0.3172,-0.3178,-0.3147,-0.3148,-0.3109,-0.3112,-0.3094,-0.3106,-0.3086,-0.3078,-0.31,-0.3101,-0.2837,-0.2734,-0.2548,-0.2517,-0.3097,-0.3097,-0.3098,0,-0.3047,-0.3074,-0.3076,-0.3091,-0.3117,-0.3139,-0.3144,-0.3157,-0.3165,-0.3147,-0.3153,-0.3114,-0.3106,-0.3101,-0.3082,-0.3081,-0.3081,-0.3085,-0.3086,-0.3113,-0.3094,-0.2772,-0.2744,-0.3079,-0.3079,-0.3079,-0.3095,0,-0.3056,-0.3069,-0.3077,-0.3096,-0.3117,-0.3128,-0.3144,-0.3146,-0.3147,-0.315,-0.3129,-0.3116,-0.3112,-0.3088,-0.3092,-0.3076,-0.3081,-0.308,-0.3119,-0.3089,-0.3096,-0.3098,-0.3085,-0.3086,-0.3086,-0.3086,0,0,-0.3052,-0.3065,-0.3082,-0.3095,-0.3111,-0.3124,-0.3139,-0.3142,-0.3156,-0.3158,-0.3153,-0.3132,-0.3135,-0.3119,-0.3098,-0.3093,-0.31,-0.3121,-0.309,-0.309,-0.3091,-0.3098,-0.3099,-0.3087,-0.3087,-0.3087,-0.3087,0,-0.3052,-0.307,-0.3077,-0.3092,-0.3112,-0.3126,-0.313,-0.315,-0.3149,-0.3156,-0.3148,-0.3137,-0.3145,-0.3136,-0.3134,-0.31,-0.3127,-0.3082,-0.3088,-0.3092,-0.3092,-0.3092,-0.3099,-0.3099,-0.3088,-0.3088,-0.3088,0,-0.305,-0.3066,-0.3073,-0.3101,-0.3115,-0.313,-0.3139,-0.3153,-0.3158,-0.3175,-0.318,-0.317,-0.3171,-0.316,-0.3158,-0.3174,-0.3162,-0.3159,-0.3156,-0.3174,-0.3181,-0.318,-0.3178,-0.32,-0.3201,-0.3201,0,0,-0.305,-0.3061,-0.3089,-0.3104,-0.3113,-0.3133,-0.3144,-0.3152,-0.3166,-0.317,-0.3183,-0.3183,-0.3177,-0.3187,-0.3183,-0.319,-0.3206,-0.3175,-0.3169,-0.3165,-0.318,-0.3185,-0.3183,-0.3203,-0.3203,-0.3204,0,0,-0.3051,-0.3079,-0.3084,-0.3106,-0.3122,-0.3148,-0.3156,-0.3165,-0.3174,-0.3172,-0.3192,-0.3197,-0.319,-0.3202,-0.3224,-0.3192,-0.321,-0.3207,-0.3201,-0.3194,-0.3189,-0.3208,-0.3246,0,0,0,0,0,-0.3063,-0.3076,-0.308,-0.3087,-0.3124,-0.3146,-0.315,-0.3163,-0.3166,-0.3169,-0.3176,-0.3196,-0.3201,-0.3223,-0.323,-0.3217,-0.3229,-0.3224,-0.322,-0.3211,-0.3204,-0.3198,0,0,0,0,0,0,-0.3066,-0.3074,-0.308,-0.3107,-0.3116,-0.3145,-0.315,-0.3153,-0.3166,-0.3166,-0.3192,-0.3196,-0.3209,-0.3221,-0.3228,-0.3214,-0.3244,-0.3227,-0.3223,-0.322,-0.3209,-0.3203,-0.3198,0,0,0,0,0,-0.3068,-0.3075,-0.313,-0.3107,-0.3114,-0.3136,-0.3149,-0.3152,-0.316,-0.3186,-0.319,-0.3169,-0.3209,-0.3215,-0.3225,-0.321,-0.324,-0.3243,-0.3224,-0.3221,-0.3219,-0.3206,0,0,0,0,0,0,-0.307,-0.3074,-0.3132,-0.3135,-0.3103,-0.3135,-0.314,-0.3151,-0.3179,-0.3183,-0.3165,-0.3165,-0.3209,-0.3214,-0.3218,-0.3206,-0.3237,-0.3239,-0.3241,-0.3222,-0.322,-0.3218,0,0,0,0,0,0,-0.3071,-0.3076,-0.3133,-0.3129,-0.3131,-0.3133,-0.3137,-0.3161,-0.3179,-0.3155,-0.3156,-0.3165,-0.3206,-0.3213,-0.3217,-0.3253,-0.3235,-0.3237,-0.3238,-0.3239,-0.322,-0.3218,0,0,0,0,0,0,-0.3073,-0.3078,-0.3128,-0.3129,-0.3131,-0.3162,-0.3154,-0.3192,-0.3171,-0.3154,-0.317,-0.317,-0.3206,-0.3209,-0.3215,-0.325,-0.3252,-0.3235,-0.3236,-0.3237,-0.3238,0,0,0,0,0,0,0,-0.3076,-0.3041,-0.3118,-0.313,-0.3132,-0.3162,-0.3162,-0.3163,-0.3171,-0.317,-0.317,-0.317,-0.3223,-0.3225,-0.3227,-0.3247,0,0,-0.3234,-0.3236,0,0,0,0,0,0,0,0,-0.304,-0.3041,-0.3118,-0.3119,-0.312,-0.3162,-0.3162,-0.3163,-0.3171,-0.317,-0.317,-0.317,-0.3223,-0.3225,-0.3227,0,0,0,0,0,0,0,0,0,0,0,0,0,0,0,-0.3118,-0.3119,0,-0.3162,-0.3162,-0.3162,-0.3171,-0.317,-0.317,-0.317,-0.3224,-0.3225,-0.3227,0,0,0,0,0,0,0,0,0,0,0,0,0,0,0,0,0,0,0,0,0,0,0,0,0,0,0,0,0,0,0,0,0,0,0,0,0,0,0,0,0,0,0,0,0,0,0,0,0,0,0,0,0,0,0,0,0,0,0,0,0,0,0,0,0,0,0,0,0]}],[{"header":{"parameterUnit":"kt","parameterCategory":2,"dx":1,"dy":1,"la1":30.253999710083008,"la2":30.299108505249023,"lo1":-89.0895004272461,"lo2":-89.04439544677734,"nx":28,"ny":28,"refTime":"2022-09-30T21:00:00:Z","depth":"0","parameterNumber":3,"parameterNumberName":"V-component_of_CURRENTS"},"data":[-0.1666,-0.1722,-0.1767,-0.1576,-0.1464,-0.1098,-0.0842,-0.0436,-0.012,0.0621,0.1043,0.1317,0.1227,0.0699,0.0549,0.0571,0.0636,0.0638,0.0708,0.0419,0.0377,0.0336,0.0307,0.0736,0.0736,0.0931,0.0932,0.0933,-0.1673,-0.1729,-0.1813,-0.1815,-0.17,-0.1762,-0.1547,-0.1241,-0.0716,-0.0408,0.0021,0.0453,0.0531,0.0461,0.0446,0.0476,0.0404,0.0499,0.0332,0.0398,0.0175,0.0153,0.0556,0.0556,0.0556,0.0556,0.0556,0.0556,-0.1673,-0.174,-0.1814,-0.191,-0.194,-0.1847,-0.1705,-0.159,-0.1345,-0.0868,-0.0841,-0.0394,-0.033,0.0012,0.0069,0.0151,0.0048,0.0143,0.0089,0.0025,0.0112,0.0021,0.0246,0.0245,0.0244,0.0244,0.0243,0,-0.1647,-0.1682,-0.1789,-0.188,-0.1955,-0.2013,-0.2048,-0.1953,-0.1916,-0.1725,-0.1382,-0.1189,-0.089,-0.0596,-0.0325,-0.0224,-0.0366,-0.0273,-0.025,-0.0375,-0.0283,-0.0139,-0.0468,-0.0387,-0.0391,-0.0395,-0.0397,-0.0399,-0.1555,-0.1633,-0.1798,-0.1851,-0.192,-0.2068,-0.2112,-0.2194,-0.2145,-0.1991,-0.1882,-0.1658,-0.1373,-0.099,-0.084,-0.06,-0.0602,-0.0386,-0.0564,-0.0387,-0.0373,-0.0418,-0.033,-0.0446,-0.044,-0.0435,-0.0431,0,-0.1502,-0.155,-0.1705,-0.1861,-0.1912,-0.2048,-0.2119,-0.2177,-0.2203,-0.2116,-0.2115,-0.1959,-0.1709,-0.1529,-0.1372,-0.1225,-0.0967,-0.0899,-0.0731,-0.0658,-0.0418,-0.0443,-0.0377,-0.0259,-0.0609,-0.0602,-0.0597,0,-0.1421,-0.1526,-0.1622,-0.1696,-0.1873,-0.1928,-0.2072,-0.2141,-0.2151,-0.2105,-0.2122,-0.2,-0.1947,-0.1739,-0.1602,-0.1261,-0.1417,-0.1119,-0.1055,-0.1035,-0.1004,-0.0945,-0.0965,-0.1446,-0.1448,-0.145,-0.1452,0,-0.1321,-0.1433,-0.1552,-0.1585,-0.17,-0.1779,-0.1849,-0.1898,-0.1906,-0.2,-0.196,-0.1991,-0.1876,-0.1867,-0.1526,-0.1584,-0.1361,-0.1443,-0.1111,-0.1083,-0.1033,-0.0995,-0.1012,-0.1454,-0.1455,-0.1456,-0.1457,0,-0.1226,-0.1295,-0.1408,-0.1555,-0.1585,-0.1636,-0.1759,-0.1791,-0.1809,-0.1801,-0.1804,-0.1744,-0.1696,-0.1617,-0.1503,-0.1519,-0.1399,-0.1306,-0.1297,-0.109,-0.0965,-0.0738,-0.0729,-0.0678,-0.1051,-0.105,-0.1049,0,-0.116,-0.1252,-0.1244,-0.1356,-0.1419,-0.1397,-0.1441,-0.1461,-0.1453,-0.1505,-0.1433,-0.1465,-0.1322,-0.1332,-0.1344,-0.1243,-0.1233,-0.1244,-0.1174,-0.1167,-0.099,-0.102,-0.0976,-0.073,-0.104,-0.1041,-0.1042,0,-0.1096,-0.1136,-0.1142,-0.1212,-0.1197,-0.1236,-0.1237,-0.1278,-0.1349,-0.1275,-0.1362,-0.1262,-0.1246,-0.122,-0.1142,-0.1173,-0.1187,-0.1111,-0.1114,-0.1008,-0.1245,-0.1022,-0.1005,-0.1291,-0.1297,-0.1301,-0.1034,0,-0.1061,-0.1091,-0.1101,-0.1127,-0.1135,-0.1157,-0.1136,-0.1137,-0.1116,-0.1114,-0.113,-0.1053,-0.1059,-0.0997,-0.0928,-0.1007,-0.0911,-0.0962,-0.0958,-0.1027,-0.0875,-0.0882,-0.0781,-0.078,-0.0779,-0.0777,0,0,-0.1011,-0.1049,-0.1019,-0.1041,-0.1064,-0.1015,-0.1057,-0.1031,-0.1006,-0.1032,-0.0972,-0.0945,-0.0874,-0.0902,-0.088,-0.0834,-0.0812,-0.083,-0.0958,-0.0978,-0.0997,-0.0862,-0.087,-0.0775,-0.0774,-0.0774,-0.0774,0,-0.1001,-0.0995,-0.1017,-0.1015,-0.101,-0.1001,-0.1003,-0.0983,-0.0975,-0.0965,-0.0925,-0.0904,-0.0834,-0.082,-0.0798,-0.0815,-0.0766,-0.0769,-0.0849,-0.0943,-0.0964,-0.0984,-0.0855,-0.0863,-0.077,-0.077,-0.0771,0,-0.0977,-0.0978,-0.0984,-0.0982,-0.0973,-0.0985,-0.0951,-0.0945,-0.0958,-0.0895,-0.0893,-0.0846,-0.0792,-0.077,-0.0753,-0.0737,-0.0733,-0.071,-0.0716,-0.0754,-0.0851,-0.0874,-0.0895,-0.0642,-0.0642,-0.0642,0,0,-0.0971,-0.0982,-0.0971,-0.0979,-0.0975,-0.0957,-0.0951,-0.0939,-0.0916,-0.0905,-0.0869,-0.0826,-0.0794,-0.0772,-0.0733,-0.0712,-0.0703,-0.0699,-0.0705,-0.0711,-0.0751,-0.0848,-0.0869,-0.0642,-0.0642,-0.0642,0,0,-0.0962,-0.096,-0.0959,-0.0967,-0.0958,-0.0934,-0.0931,-0.0921,-0.0897,-0.0892,-0.0843,-0.083,-0.0803,-0.0763,-0.0771,-0.0721,-0.069,-0.0687,-0.0762,-0.0768,-0.0774,-0.0836,-0.0723,0,0,0,0,0,-0.0953,-0.0963,-0.0963,-0.0963,-0.0951,-0.094,-0.0937,-0.0915,-0.0906,-0.0904,-0.0873,-0.0837,-0.0756,-0.0762,-0.075,-0.0751,-0.0643,-0.0643,-0.0643,-0.0732,-0.0739,-0.0746,0,0,0,0,0,0,-0.0953,-0.0954,-0.0962,-0.0942,-0.0939,-0.094,-0.0918,-0.0912,-0.0905,-0.0901,-0.0846,-0.0835,-0.0798,-0.0765,-0.0754,-0.0756,-0.0726,-0.0643,-0.0643,-0.0643,-0.0734,-0.0741,-0.0746,0,0,0,0,0,-0.0953,-0.0953,-0.0944,-0.0941,-0.0939,-0.0913,-0.0918,-0.0913,-0.0904,-0.0852,-0.0841,-0.0889,-0.08,-0.0787,-0.0758,-0.0762,-0.0733,-0.0729,-0.0643,-0.0643,-0.0643,-0.0737,0,0,0,0,0,0,-0.0953,-0.0943,-0.0943,-0.0941,-0.0937,-0.0912,-0.0909,-0.0913,-0.0854,-0.0845,-0.0891,-0.0889,-0.0801,-0.0791,-0.0782,-0.0767,-0.0738,-0.0735,-0.0732,-0.0643,-0.0643,-0.0643,0,0,0,0,0,0,-0.0943,-0.0942,-0.0942,-0.0937,-0.0934,-0.0911,-0.0908,-0.0873,-0.0852,-0.0895,-0.0892,-0.0891,-0.0801,-0.0793,-0.0786,-0.0733,-0.0743,-0.0739,-0.0737,-0.0735,-0.0643,-0.0643,0,0,0,0,0,0,-0.0942,-0.0941,-0.0937,-0.0935,-0.0932,-0.0904,-0.0877,-0.0857,-0.0879,-0.0897,-0.0877,-0.0876,-0.0803,-0.0796,-0.0789,-0.0739,-0.0734,-0.0742,-0.074,-0.0738,-0.0737,0,0,0,0,0,0,0,-0.0941,-0.0957,-0.0958,-0.0933,-0.0931,-0.092,-0.092,-0.0919,-0.0878,-0.0878,-0.0877,-0.0876,-0.0763,-0.0759,-0.0755,-0.0745,0,0,-0.0743,-0.0741,0,0,0,0,0,0,0,0,-0.0956,-0.0957,-0.0958,-0.0957,-0.0957,-0.092,-0.092,-0.0919,-0.0878,-0.0878,-0.0877,-0.0877,-0.0762,-0.0759,-0.0755,0,0,0,0,0,0,0,0,0,0,0,0,0,0,0,-0.0958,-0.0957,0,-0.092,-0.092,-0.0919,-0.0878,-0.0878,-0.0877,-0.0877,-0.0761,-0.0758,-0.0756,0,0,0,0,0,0,0,0,0,0,0,0,0,0,0,0,0,0,0,0,0,0,0,0,0,0,0,0,0,0,0,0,0,0,0,0,0,0,0,0,0,0,0,0,0,0,0,0,0,0,0,0,0,0,0,0,0,0,0,0,0,0,0,0,0,0,0,0,0]}]],[[{"header":{"parameterUnit":"kt","parameterCategory":2,"dx":1,"dy":1,"la1":30.253999710083008,"la2":30.299108505249023,"lo1":-89.0895004272461,"lo2":-89.04439544677734,"nx":28,"ny":28,"refTime":"2022-09-30T21:00:00:Z","depth":"2","parameterNumber":2,"parameterNumberName":"U-component_of_CURRENTS"},"data":[-0.2321,-0.2235,-0.2225,-0.1987,-0.1931,-0.175,-0.1676,-0.1518,-0.1373,-0.1124,-0.1006,-0.1052,-0.0966,-0.0624,-0.0477,-0.026,-0.0524,-0.0211,-0.0714,-0.0993,-0.1052,-0.1225,-0.1095,0,0,0,0,0,-0.2414,-0.2395,-0.2382,-0.2323,-0.2214,-0.2333,-0.2272,-0.2117,-0.1939,-0.1819,-0.1697,-0.1407,-0.1134,-0.1018,-0.0662,-0.0546,-0.065,-0.0529,-0.0713,-0.0779,-0.0838,-0.0711,-0.0189,-0.0188,-0.0186,-0.0185,0,0,-0.2568,-0.2552,-0.2553,-0.2545,-0.256,-0.251,-0.244,-0.2429,-0.2372,-0.2218,-0.226,-0.2021,-0.1895,-0.1396,-0.1207,-0.1066,-0.1254,-0.1243,-0.1276,-0.1317,-0.1203,-0.1139,-0.0816,-0.0819,-0.0821,-0.0823,-0.0825,0,-0.2654,-0.268,-0.2693,-0.2698,-0.2706,-0.2729,-0.2735,-0.2719,-0.275,-0.2733,-0.26,-0.2492,-0.2233,-0.1918,-0.168,-0.1585,-0.1831,-0.1641,-0.2138,-0.1792,-0.1748,-0.1744,-0.1779,-0.1556,-0.1563,-0.1568,-0.1572,-0.1575,-0.273,-0.2736,-0.2804,-0.2803,-0.2825,-0.287,-0.2868,-0.2956,-0.2934,-0.2933,-0.2873,-0.2792,-0.2623,-0.2407,-0.2223,-0.2069,-0.2233,-0.1815,-0.1832,-0.2267,-0.2257,-0.2273,-0.2287,-0.165,-0.164,-0.1633,-0.1626,0,-0.2766,-0.2802,-0.2825,-0.2885,-0.2905,-0.2926,-0.2987,-0.2982,-0.3039,-0.3002,-0.3008,-0.2995,-0.2863,-0.2817,-0.2735,-0.2642,-0.2519,-0.2411,-0.223,-0.2174,-0.2335,-0.2338,-0.2182,-0.2172,-0.2163,-0.2156,-0.215,0,-0.2818,-0.283,-0.2885,-0.2894,-0.2923,-0.2963,-0.2989,-0.301,-0.304,-0.3012,-0.3057,-0.3003,-0.3016,-0.2938,-0.2898,-0.2692,-0.282,-0.2576,-0.2547,-0.241,-0.2376,-0.2854,-0.2856,-0.2835,-0.2835,-0.2835,-0.2835,0,-0.2837,-0.2876,-0.2892,-0.2905,-0.2951,-0.2965,-0.299,-0.3012,-0.3024,-0.304,-0.3047,-0.3036,-0.3015,-0.2989,-0.2894,-0.2939,-0.2819,-0.2884,-0.2609,-0.2593,-0.2425,-0.239,-0.2836,-0.2836,-0.2836,-0.2836,-0.2836,0,-0.2862,-0.2883,-0.2903,-0.2942,-0.2952,-0.2969,-0.2997,-0.3009,-0.3017,-0.3022,-0.3016,-0.301,-0.2987,-0.2963,-0.2921,-0.2935,-0.2899,-0.2872,-0.2872,-0.2622,-0.2606,-0.2435,-0.2296,-0.2868,-0.2868,-0.2868,-0.2869,0,-0.2874,-0.2894,-0.2908,-0.2932,-0.2946,-0.2964,-0.2975,-0.2987,-0.2992,-0.2999,-0.2972,-0.2972,-0.2947,-0.2947,-0.2923,-0.2901,-0.2879,-0.2887,-0.2882,-0.2881,-0.2658,-0.2561,-0.2371,-0.232,-0.2872,-0.2871,-0.2871,0,-0.2876,-0.2901,-0.2903,-0.2916,-0.2939,-0.2954,-0.2961,-0.2973,-0.2983,-0.2974,-0.2981,-0.2945,-0.2942,-0.2937,-0.2923,-0.2905,-0.2883,-0.2908,-0.2907,-0.292,-0.287,-0.2601,-0.2574,-0.2884,-0.2883,-0.2883,-0.2873,0,-0.2885,-0.2897,-0.2903,-0.292,-0.2935,-0.2946,-0.2959,-0.2963,-0.2968,-0.2972,-0.296,-0.2946,-0.2946,-0.2925,-0.2925,-0.2903,-0.2913,-0.291,-0.2939,-0.2911,-0.2909,-0.2907,-0.2934,-0.2934,-0.2934,-0.2934,0,0,-0.2882,-0.2891,-0.2903,-0.2914,-0.2926,-0.2939,-0.2952,-0.2955,-0.2971,-0.2973,-0.2971,-0.2962,-0.2958,-0.2947,-0.2928,-0.2927,-0.2931,-0.2957,-0.2918,-0.2916,-0.2915,-0.2912,-0.291,-0.2935,-0.2935,-0.2935,-0.2935,0,-0.288,-0.2893,-0.2898,-0.291,-0.2927,-0.2938,-0.2943,-0.296,-0.2961,-0.2972,-0.2965,-0.2954,-0.2972,-0.2959,-0.2958,-0.2933,-0.2954,-0.2928,-0.2932,-0.292,-0.2918,-0.2916,-0.2913,-0.2911,-0.2936,-0.2936,-0.2936,0,-0.2878,-0.289,-0.2895,-0.2915,-0.2926,-0.2939,-0.2945,-0.2958,-0.2964,-0.2979,-0.2988,-0.2982,-0.2984,-0.298,-0.298,-0.2994,-0.2981,-0.2988,-0.2986,-0.2995,-0.2984,-0.2981,-0.2978,-0.3017,-0.3017,-0.3018,0,0,-0.2878,-0.2885,-0.2906,-0.2917,-0.2924,-0.2941,-0.2949,-0.2956,-0.2969,-0.2973,-0.2987,-0.2991,-0.2988,-0.2999,-0.2997,-0.3009,-0.3013,-0.2999,-0.2995,-0.2992,-0.2999,-0.2987,-0.2984,-0.3019,-0.3019,-0.3019,0,0,-0.2878,-0.2898,-0.2902,-0.2918,-0.293,-0.295,-0.2956,-0.2964,-0.2974,-0.2975,-0.2993,-0.2998,-0.2996,-0.3008,-0.3025,-0.3006,-0.3018,-0.3016,-0.3013,-0.3008,-0.3004,-0.3012,-0.3042,0,0,0,0,0,-0.2887,-0.2896,-0.2899,-0.2905,-0.2932,-0.2948,-0.2952,-0.2961,-0.2966,-0.2968,-0.2977,-0.2993,-0.3006,-0.3022,-0.3029,-0.3022,-0.3039,-0.3035,-0.3032,-0.3029,-0.3023,-0.3019,0,0,0,0,0,0,-0.2889,-0.2895,-0.2899,-0.2919,-0.2926,-0.2948,-0.2951,-0.2953,-0.2965,-0.2965,-0.299,-0.2994,-0.3004,-0.302,-0.3026,-0.3018,-0.304,-0.3037,-0.3034,-0.3032,-0.3027,-0.3023,-0.3019,0,0,0,0,0,-0.2891,-0.2896,-0.2936,-0.2919,-0.2925,-0.2941,-0.295,-0.2952,-0.2961,-0.2983,-0.2987,-0.2968,-0.3004,-0.301,-0.3024,-0.3015,-0.3036,-0.3038,-0.3035,-0.3033,-0.3031,-0.3025,0,0,0,0,0,0,-0.2892,-0.2895,-0.2938,-0.294,-0.2916,-0.294,-0.2944,-0.2952,-0.2978,-0.2981,-0.2962,-0.2962,-0.3004,-0.3009,-0.3014,-0.3011,-0.3032,-0.3035,-0.3036,-0.3034,-0.3032,-0.303,0,0,0,0,0,0,-0.2893,-0.2897,-0.2939,-0.2934,-0.2936,-0.2939,-0.2942,-0.2966,-0.2978,-0.2955,-0.2955,-0.2961,-0.3003,-0.3008,-0.3012,-0.3048,-0.303,-0.3032,-0.3033,-0.3034,-0.3032,-0.3031,0,0,0,0,0,0,-0.2895,-0.2898,-0.2934,-0.2935,-0.2936,-0.296,-0.296,-0.299,-0.2966,-0.2953,-0.2966,-0.2965,-0.3002,-0.3006,-0.301,-0.3045,-0.3047,-0.303,-0.3031,-0.3032,-0.3033,0,0,0,0,0,0,0,-0.2896,-0.287,-0.2927,-0.2935,-0.2937,-0.296,-0.2961,-0.2961,-0.2966,-0.2966,-0.2966,-0.2965,-0.3018,-0.302,-0.3022,-0.3042,0,0,-0.303,-0.3031,0,0,0,0,0,0,0,0,-0.2869,-0.287,-0.2927,-0.2927,-0.2928,-0.296,-0.2961,-0.2961,-0.2966,-0.2966,-0.2966,-0.2966,-0.3018,-0.302,-0.3022,0,0,0,0,0,0,0,0,0,0,0,0,0,0,0,-0.2927,-0.2927,0,-0.296,-0.2961,-0.2961,-0.2966,-0.2966,-0.2966,-0.2966,-0.3019,-0.302,-0.3022,0,0,0,0,0,0,0,0,0,0,0,0,0,0,0,0,0,0,0,0,0,0,0,0,0,0,0,0,0,0,0,0,0,0,0,0,0,0,0,0,0,0,0,0,0,0,0,0,0,0,0,0,0,0,0,0,0,0,0,0,0,0,0,0,0,0,0,0,0]}],[{"header":{"parameterUnit":"kt","parameterCategory":2,"dx":1,"dy":1,"la1":30.253999710083008,"la2":30.299108505249023,"lo1":-89.0895004272461,"lo2":-89.04439544677734,"nx":28,"ny":28,"refTime":"2022-09-30T21:00:00:Z","depth":"2","parameterNumber":3,"parameterNumberName":"V-component_of_CURRENTS"},"data":[-0.127,-0.1344,-0.1388,-0.1533,-0.161,-0.1662,-0.1647,-0.152,-0.1317,-0.1055,-0.0821,-0.0631,-0.023,-0.0038,0.0175,0.0365,0.028,0.036,0.0275,0.0121,0.0102,0.0191,0.0138,0,0,0,0,0,-0.1251,-0.1307,-0.1383,-0.1476,-0.1541,-0.1532,-0.1488,-0.1459,-0.1379,-0.1115,-0.0947,-0.0615,-0.0309,-0.0026,0.0267,0.0421,0.036,0.0426,0.0329,0.0311,0.0295,0.0271,0.0472,0.0472,0.0473,0.0473,0,0,-0.1216,-0.1268,-0.1325,-0.1397,-0.1437,-0.1441,-0.147,-0.1389,-0.1327,-0.1155,-0.0985,-0.0728,-0.0455,-0.0079,0.0116,0.0271,0.0223,0.0246,0.0235,0.0222,0.0201,0.0212,0.0379,0.0379,0.0379,0.0378,0.0378,0,-0.1172,-0.1196,-0.1246,-0.132,-0.1361,-0.1384,-0.1378,-0.1356,-0.1248,-0.1174,-0.0985,-0.0846,-0.051,-0.0263,-0.0,0.0093,0.0038,0.0138,0.0021,-0.003,-0.0024,-0.0003,-0.0018,0.0101,0.0099,0.0097,0.0096,0.0096,-0.1109,-0.1144,-0.1206,-0.1242,-0.1269,-0.1306,-0.1308,-0.1269,-0.1229,-0.1076,-0.1024,-0.0867,-0.07,-0.0402,-0.0238,-0.0048,-0.0084,0.0088,0.0016,-0.0105,-0.008,-0.0093,-0.0104,0.0075,0.0078,0.008,0.0081,0,-0.1075,-0.1087,-0.1142,-0.1165,-0.1176,-0.1212,-0.1214,-0.1197,-0.1145,-0.108,-0.1079,-0.0938,-0.0785,-0.0652,-0.0472,-0.038,-0.0231,-0.0147,-0.0132,-0.0095,-0.0119,-0.0126,-0.0001,0.0003,0.0007,0.0009,0.0012,0,-0.1023,-0.1054,-0.1077,-0.1107,-0.1142,-0.1123,-0.1136,-0.1116,-0.1059,-0.1013,-0.0978,-0.0911,-0.0828,-0.0701,-0.0603,-0.0416,-0.0448,-0.0309,-0.027,-0.0272,-0.0264,-0.0389,-0.0391,-0.0384,-0.0385,-0.0386,-0.0387,0,-0.0971,-0.1002,-0.1047,-0.1056,-0.1056,-0.1071,-0.107,-0.1023,-0.1006,-0.0961,-0.093,-0.0878,-0.0829,-0.0759,-0.0612,-0.0645,-0.0448,-0.0477,-0.0318,-0.031,-0.0254,-0.0242,-0.0389,-0.0389,-0.0389,-0.0389,-0.039,0,-0.0926,-0.0951,-0.0999,-0.1006,-0.1008,-0.1024,-0.1005,-0.0995,-0.0933,-0.0905,-0.0882,-0.084,-0.079,-0.0765,-0.0651,-0.069,-0.0599,-0.0528,-0.0521,-0.0422,-0.0384,-0.0258,-0.0224,-0.0417,-0.0418,-0.0419,-0.042,0,-0.0881,-0.0925,-0.0921,-0.0956,-0.0977,-0.0952,-0.094,-0.0923,-0.0894,-0.0856,-0.081,-0.0784,-0.0763,-0.0744,-0.0703,-0.0614,-0.0566,-0.0616,-0.048,-0.0475,-0.0408,-0.0392,-0.0377,-0.0244,-0.0432,-0.043,-0.043,0,-0.0843,-0.0862,-0.0866,-0.0881,-0.088,-0.0886,-0.0883,-0.0873,-0.0856,-0.0839,-0.0815,-0.0768,-0.074,-0.0707,-0.0658,-0.062,-0.0578,-0.0587,-0.0584,-0.0531,-0.0495,-0.0417,-0.0401,-0.0583,-0.0583,-0.0582,-0.0439,0,-0.0806,-0.0824,-0.0834,-0.0847,-0.0848,-0.086,-0.0839,-0.0831,-0.0813,-0.0793,-0.0767,-0.0713,-0.0672,-0.0645,-0.0609,-0.0582,-0.0554,-0.0549,-0.052,-0.0539,-0.047,-0.0463,-0.0531,-0.053,-0.0529,-0.0528,0,0,-0.0765,-0.0791,-0.0779,-0.0794,-0.0799,-0.0771,-0.0789,-0.0772,-0.075,-0.0741,-0.0727,-0.0664,-0.0613,-0.0577,-0.0575,-0.0553,-0.0523,-0.0537,-0.0531,-0.0532,-0.0532,-0.0469,-0.0463,-0.0527,-0.0526,-0.0526,-0.0526,0,-0.0752,-0.0755,-0.0775,-0.0773,-0.077,-0.0758,-0.0761,-0.0745,-0.0731,-0.0723,-0.0682,-0.065,-0.0603,-0.056,-0.0533,-0.0544,-0.0488,-0.0529,-0.0553,-0.0524,-0.0526,-0.0528,-0.0466,-0.0461,-0.0523,-0.0523,-0.0524,0,-0.0724,-0.0727,-0.0735,-0.0739,-0.0731,-0.0736,-0.0709,-0.0709,-0.0709,-0.0657,-0.0645,-0.0611,-0.0558,-0.0533,-0.0517,-0.05,-0.0454,-0.0471,-0.0475,-0.0475,-0.0443,-0.0446,-0.0448,-0.0419,-0.0419,-0.0419,0,0,-0.0714,-0.0729,-0.072,-0.0735,-0.0732,-0.0714,-0.071,-0.0697,-0.0677,-0.0667,-0.0631,-0.0591,-0.0557,-0.0533,-0.0501,-0.0477,-0.0441,-0.0461,-0.0466,-0.047,-0.0473,-0.0442,-0.0445,-0.0418,-0.0418,-0.0418,0,0,-0.0702,-0.0703,-0.0699,-0.0716,-0.0709,-0.0687,-0.0689,-0.0676,-0.0656,-0.065,-0.0599,-0.0586,-0.0562,-0.0526,-0.053,-0.0479,-0.0456,-0.0454,-0.0505,-0.0511,-0.0515,-0.0528,-0.0476,0,0,0,0,0,-0.0688,-0.0706,-0.0703,-0.0704,-0.0699,-0.0694,-0.0691,-0.0669,-0.0656,-0.0659,-0.0627,-0.0587,-0.0517,-0.0519,-0.0508,-0.0498,-0.0415,-0.0415,-0.0416,-0.0476,-0.0483,-0.0488,0,0,0,0,0,0,-0.0688,-0.0691,-0.0702,-0.0685,-0.0683,-0.0694,-0.0666,-0.066,-0.0655,-0.0651,-0.0597,-0.0586,-0.0548,-0.0521,-0.0511,-0.0503,-0.0479,-0.0415,-0.0415,-0.0416,-0.0479,-0.0484,-0.0488,0,0,0,0,0,-0.0689,-0.069,-0.0692,-0.0683,-0.0682,-0.0657,-0.0665,-0.066,-0.0654,-0.0601,-0.059,-0.0637,-0.0549,-0.0538,-0.0515,-0.0509,-0.0485,-0.0482,-0.0415,-0.0416,-0.0416,-0.0481,0,0,0,0,0,0,-0.0689,-0.068,-0.069,-0.0688,-0.0676,-0.0655,-0.0652,-0.066,-0.0603,-0.0594,-0.0638,-0.0635,-0.0551,-0.0541,-0.0533,-0.0513,-0.049,-0.0487,-0.0485,-0.0416,-0.0416,-0.0416,0,0,0,0,0,0,-0.0679,-0.0679,-0.0689,-0.0682,-0.0679,-0.0654,-0.0652,-0.062,-0.0601,-0.0641,-0.0638,-0.0637,-0.055,-0.0544,-0.0537,-0.0489,-0.0494,-0.0491,-0.0488,-0.0487,-0.0416,-0.0416,0,0,0,0,0,0,-0.0678,-0.0678,-0.0682,-0.068,-0.0677,-0.0652,-0.0623,-0.0609,-0.0625,-0.0643,-0.0623,-0.0622,-0.0552,-0.0545,-0.054,-0.0496,-0.0491,-0.0494,-0.0492,-0.049,-0.0489,0,0,0,0,0,0,0,-0.0677,-0.0688,-0.0704,-0.0678,-0.0675,-0.067,-0.067,-0.0669,-0.0625,-0.0624,-0.0623,-0.0623,-0.0512,-0.0509,-0.0505,-0.0501,0,0,-0.0494,-0.0492,0,0,0,0,0,0,0,0,-0.0687,-0.0688,-0.0704,-0.0703,-0.0703,-0.067,-0.067,-0.0669,-0.0625,-0.0624,-0.0624,-0.0623,-0.0511,-0.0508,-0.0506,0,0,0,0,0,0,0,0,0,0,0,0,0,0,0,-0.0704,-0.0703,0,-0.067,-0.067,-0.0669,-0.0625,-0.0624,-0.0624,-0.0623,-0.0511,-0.0508,-0.0506,0,0,0,0,0,0,0,0,0,0,0,0,0,0,0,0,0,0,0,0,0,0,0,0,0,0,0,0,0,0,0,0,0,0,0,0,0,0,0,0,0,0,0,0,0,0,0,0,0,0,0,0,0,0,0,0,0,0,0,0,0,0,0,0,0,0,0,0,0]}]],[[{"header":{"parameterUnit":"kt","parameterCategory":2,"dx":1,"dy":1,"la1":30.253999710083008,"la2":30.299108505249023,"lo1":-89.0895004272461,"lo2":-89.04439544677734,"nx":28,"ny":28,"refTime":"2022-09-30T21:00:00:Z","depth":"4","parameterNumber":2,"parameterNumberName":"U-component_of_CURRENTS"},"data":[-0.1816,-0.1829,-0.1791,-0.1589,-0.149,-0.1466,-0.1509,-0.1565,-0.1474,-0.1563,-0.1483,-0.1571,-0.1441,-0.1557,-0.1308,-0.1305,-0.1334,-0.1343,-0.1337,-0.1476,-0.1497,-0.1515,-0.1508,0,0,0,0,0,-0.1888,-0.1846,-0.186,-0.1808,-0.1844,-0.184,-0.1928,-0.1981,-0.2031,-0.1836,-0.1879,-0.1724,-0.1552,-0.1531,-0.138,-0.1527,-0.1497,-0.1346,-0.146,-0.1489,-0.1512,-0.1497,0,0,0,0,0,0,-0.1976,-0.1984,-0.2036,-0.2043,-0.2095,-0.2027,-0.2093,-0.2011,-0.201,-0.2021,-0.1939,-0.1872,-0.19,-0.1728,-0.1624,-0.1525,-0.1485,-0.1437,-0.1461,-0.1483,-0.1459,-0.1472,-0.1179,0,0,0,0,0,-0.2035,-0.2106,-0.2142,-0.2193,-0.2231,-0.2256,-0.2266,-0.225,-0.2256,-0.2375,-0.218,-0.2077,-0.1952,-0.1831,-0.175,-0.1637,-0.1785,-0.1689,-0.1701,-0.1714,-0.1742,-0.1748,-0.1772,-0.1598,-0.1601,-0.1603,-0.1604,0,-0.2111,-0.2137,-0.2254,-0.2278,-0.2321,-0.2375,-0.2387,-0.2454,-0.2426,-0.2431,-0.237,-0.2326,-0.2278,-0.1996,-0.1981,-0.1825,-0.1801,-0.1749,-0.1764,-0.178,-0.1776,-0.1796,-0.1813,-0.1623,-0.1621,-0.162,-0.1618,0,-0.2149,-0.2214,-0.2261,-0.234,-0.237,-0.239,-0.2468,-0.2461,-0.2509,-0.2479,-0.2474,-0.2467,-0.2345,-0.2321,-0.2197,-0.2113,-0.1971,-0.1899,-0.2163,-0.2161,-0.184,-0.1851,-0.1653,-0.1646,-0.1641,-0.1636,-0.1632,0,-0.2207,-0.2241,-0.2328,-0.2347,-0.2384,-0.2419,-0.2453,-0.2462,-0.2489,-0.2464,-0.2494,-0.2449,-0.2434,-0.2379,-0.2317,-0.215,-0.2213,-0.2029,-0.2003,-0.2238,-0.2247,-0.2221,-0.223,-0.2154,-0.2155,-0.2155,-0.2156,0,-0.2236,-0.2299,-0.2337,-0.2357,-0.2413,-0.2437,-0.246,-0.2482,-0.2502,-0.2489,-0.2509,-0.2456,-0.2455,-0.2378,-0.2339,-0.2362,-0.224,-0.2256,-0.2069,-0.2061,-0.2228,-0.2235,-0.2157,-0.2157,-0.2157,-0.2157,-0.2157,0,-0.2275,-0.2305,-0.2352,-0.2393,-0.2406,-0.2437,-0.2466,-0.2486,-0.2494,-0.2511,-0.25,-0.2499,-0.2463,-0.2472,-0.2387,-0.243,-0.2388,-0.2358,-0.2354,-0.2191,-0.2199,-0.2369,-0.2327,-0.2329,-0.233,-0.2332,-0.2333,0,-0.2281,-0.2322,-0.2347,-0.2391,-0.2411,-0.2445,-0.2468,-0.2491,-0.2515,-0.2525,-0.251,-0.2514,-0.2527,-0.2531,-0.2496,-0.2468,-0.2423,-0.2477,-0.238,-0.2377,-0.2237,-0.2155,-0.2434,-0.2353,-0.2351,-0.2349,-0.2347,0,-0.2271,-0.2326,-0.2336,-0.2356,-0.2405,-0.2418,-0.2456,-0.2474,-0.2487,-0.2524,-0.2524,-0.2537,-0.2534,-0.2535,-0.2539,-0.2504,-0.2453,-0.2516,-0.2513,-0.2482,-0.2356,-0.2202,-0.2175,-0.2445,-0.2443,-0.2441,-0.2362,0,-0.2276,-0.231,-0.2325,-0.2359,-0.2382,-0.241,-0.2434,-0.2466,-0.2505,-0.2514,-0.253,-0.2541,-0.2548,-0.2559,-0.2573,-0.2537,-0.2545,-0.2539,-0.2535,-0.2518,-0.2489,-0.2478,-0.2606,-0.2606,-0.2606,-0.2606,0,0,-0.2261,-0.2282,-0.2302,-0.2322,-0.2343,-0.2375,-0.2398,-0.2421,-0.2471,-0.2478,-0.251,-0.2537,-0.2559,-0.2548,-0.2556,-0.2573,-0.2555,-0.2594,-0.2539,-0.2532,-0.2525,-0.2496,-0.2485,-0.2606,-0.2606,-0.2606,-0.2606,0,-0.2241,-0.2272,-0.2291,-0.231,-0.2346,-0.2358,-0.2376,-0.2411,-0.2436,-0.2483,-0.2491,-0.2507,-0.2569,-0.2555,-0.256,-0.2574,-0.2567,-0.2598,-0.2594,-0.254,-0.2533,-0.2527,-0.2497,-0.2488,-0.2605,-0.2605,-0.2605,0,-0.2224,-0.2238,-0.2254,-0.2283,-0.2306,-0.2327,-0.2339,-0.2377,-0.24,-0.2425,-0.2484,-0.2499,-0.2514,-0.2542,-0.2563,-0.2567,-0.2569,-0.2601,-0.2601,-0.2586,-0.2529,-0.2522,-0.2516,-0.2595,-0.2595,-0.2595,0,0,-0.2211,-0.2233,-0.2251,-0.2279,-0.2292,-0.2322,-0.2342,-0.2364,-0.2396,-0.2419,-0.2457,-0.249,-0.2506,-0.2535,-0.2552,-0.2589,-0.2559,-0.26,-0.26,-0.2601,-0.2587,-0.253,-0.2524,-0.2595,-0.2595,-0.2595,0,0,-0.2202,-0.2224,-0.2241,-0.2269,-0.2291,-0.2307,-0.2336,-0.2357,-0.2403,-0.2423,-0.245,-0.2462,-0.2506,-0.2522,-0.2519,-0.2557,-0.2554,-0.2556,-0.2556,-0.2557,-0.2557,-0.2533,-0.2526,0,0,0,0,0,-0.2196,-0.2216,-0.223,-0.2238,-0.2278,-0.2296,-0.2303,-0.2338,-0.2364,-0.2385,-0.2423,-0.2439,-0.2515,-0.2513,-0.2523,-0.2538,-0.2596,-0.2595,-0.2595,-0.2603,-0.2604,-0.2604,0,0,0,0,0,0,-0.2199,-0.2207,-0.223,-0.2244,-0.2254,-0.2295,-0.2308,-0.2317,-0.2363,-0.237,-0.2429,-0.2439,-0.2451,-0.2509,-0.2518,-0.2532,-0.2523,-0.2596,-0.2595,-0.2595,-0.2603,-0.2604,-0.2604,0,0,0,0,0,-0.2202,-0.2208,-0.2266,-0.2244,-0.2253,-0.2298,-0.2309,-0.2317,-0.2363,-0.239,-0.2402,-0.2394,-0.2449,-0.2461,-0.2515,-0.2527,-0.2517,-0.252,-0.2595,-0.2595,-0.2595,-0.2604,0,0,0,0,0,0,-0.2203,-0.2213,-0.2268,-0.2272,-0.2254,-0.2298,-0.2306,-0.2316,-0.2382,-0.2393,-0.2352,-0.2356,-0.2447,-0.2457,-0.2466,-0.2524,-0.2512,-0.2515,-0.2517,-0.2595,-0.2595,-0.2595,0,0,0,0,0,0,-0.221,-0.2216,-0.227,-0.228,-0.2285,-0.2297,-0.2305,-0.2335,-0.2383,-0.2341,-0.2346,-0.2353,-0.2446,-0.2454,-0.2461,-0.2506,-0.2508,-0.2511,-0.2514,-0.2515,-0.2595,-0.2595,0,0,0,0,0,0,-0.2213,-0.2219,-0.2279,-0.2283,-0.2288,-0.2333,-0.2327,-0.2374,-0.2369,-0.2338,-0.2372,-0.2373,-0.2443,-0.2451,-0.2458,-0.2499,-0.2504,-0.2508,-0.2511,-0.2512,-0.2513,0,0,0,0,0,0,0,-0.2216,-0.2174,-0.2246,-0.2286,-0.229,-0.2307,-0.2308,-0.2309,-0.2369,-0.237,-0.2371,-0.2373,-0.249,-0.2493,-0.2497,-0.2494,0,0,-0.2508,-0.251,0,0,0,0,0,0,0,0,-0.2173,-0.2174,-0.2246,-0.2247,-0.2248,-0.2308,-0.2308,-0.2309,-0.2369,-0.237,-0.2371,-0.2372,-0.2491,-0.2494,-0.2497,0,0,0,0,0,0,0,0,0,0,0,0,0,0,0,-0.2246,-0.2247,0,-0.2308,-0.2308,-0.2309,-0.2369,-0.237,-0.2371,-0.2372,-0.2492,-0.2494,-0.2496,0,0,0,0,0,0,0,0,0,0,0,0,0,0,0,0,0,0,0,0,0,0,0,0,0,0,0,0,0,0,0,0,0,0,0,0,0,0,0,0,0,0,0,0,0,0,0,0,0,0,0,0,0,0,0,0,0,0,0,0,0,0,0,0,0,0,0,0,0]}],[{"header":{"parameterUnit":"kt","parameterCategory":2,"dx":1,"dy":1,"la1":30.253999710083008,"la2":30.299108505249023,"lo1":-89.0895004272461,"lo2":-89.04439544677734,"nx":28,"ny":28,"refTime":"2022-09-30T21:00:00:Z","depth":"4","parameterNumber":3,"parameterNumberName":"V-component_of_CURRENTS"},"data":[-0.0804,-0.0887,-0.0932,-0.108,-0.1164,-0.1233,-0.1222,-0.1142,-0.1075,-0.0952,-0.0834,-0.0686,-0.0476,-0.0558,-0.0249,-0.02,-0.0061,0.0127,0.013,0.0365,0.0372,0.0379,0.0305,0,0,0,0,0,-0.0775,-0.0841,-0.0918,-0.1003,-0.1085,-0.1116,-0.1086,-0.1033,-0.0932,-0.0885,-0.0796,-0.0678,-0.045,-0.0333,-0.0223,-0.0139,0.0099,-0.0004,0.0191,0.037,0.0377,0.0304,0,0,0,0,0,0,-0.0746,-0.0786,-0.0848,-0.091,-0.0981,-0.1023,-0.0989,-0.095,-0.0907,-0.0758,-0.0734,-0.0557,-0.043,-0.0231,-0.0118,0.0002,0.0097,0.0174,0.0192,0.0201,0.0113,-0.0076,-0.0022,0,0,0,0,0,-0.0702,-0.0735,-0.075,-0.0829,-0.0865,-0.0878,-0.0865,-0.0868,-0.0749,-0.0689,-0.059,-0.0455,-0.0354,-0.0152,-0.0055,0.0107,0.031,0.031,0.0318,0.0401,0.0279,0.0265,0.0251,0.0407,0.0408,0.0408,0.0409,0,-0.0683,-0.069,-0.0705,-0.0738,-0.0742,-0.0718,-0.072,-0.0623,-0.0603,-0.0494,-0.0489,-0.0389,-0.0302,-0.0126,0.0048,0.025,0.0269,0.0327,0.0414,0.029,0.0277,0.026,0.0244,0.0415,0.0414,0.0414,0.0413,0,-0.0679,-0.0675,-0.0669,-0.0626,-0.062,-0.0596,-0.0578,-0.0535,-0.0444,-0.0405,-0.0381,-0.0256,-0.0154,-0.0037,0.0167,0.0227,0.0357,0.0365,0.0265,0.0257,0.0266,0.0246,0.0425,0.0423,0.0421,0.0419,0.0418,0,-0.0666,-0.0652,-0.064,-0.0639,-0.0601,-0.0544,-0.0493,-0.042,-0.0337,-0.0301,-0.0182,-0.015,0.0019,0.0079,0.0169,0.0232,0.0323,0.0314,0.0319,0.0321,0.0302,0.0368,0.0351,0.0503,0.0503,0.0502,0.0502,0,-0.0668,-0.0649,-0.0641,-0.0635,-0.0585,-0.056,-0.052,-0.0426,-0.0402,-0.0244,-0.0231,-0.0048,-0.0037,0.0123,0.0113,0.0122,0.0271,0.0312,0.0282,0.027,0.0358,0.0343,0.0501,0.0501,0.0501,0.0501,0.05,0,-0.0671,-0.0665,-0.0667,-0.06,-0.0589,-0.0586,-0.0492,-0.046,-0.0347,-0.0313,-0.0215,-0.0173,-0.0074,-0.0102,0.0061,-0.0005,0.0049,0.0088,0.0094,0.0046,-0.0014,0.0022,0.0084,0.0081,0.0078,0.0075,0.0073,0,-0.0654,-0.0661,-0.0663,-0.0647,-0.0637,-0.0619,-0.0586,-0.054,-0.0505,-0.042,-0.0353,-0.0287,-0.0323,-0.0292,-0.0199,-0.0149,-0.0061,-0.0157,0.0042,0.0046,-0.0033,0.0018,-0.0041,0.0032,0.0037,0.0041,0.0044,0,-0.0642,-0.0649,-0.0653,-0.0634,-0.0645,-0.0634,-0.0626,-0.0576,-0.0514,-0.0517,-0.0419,-0.0401,-0.0358,-0.0322,-0.0305,-0.0216,-0.013,-0.0226,-0.0219,-0.019,0.0083,-0.0023,-0.001,-0.0068,-0.0062,-0.0058,0.0016,0,-0.0609,-0.0621,-0.0633,-0.0638,-0.0639,-0.0646,-0.0631,-0.0624,-0.0619,-0.0584,-0.0517,-0.0495,-0.0415,-0.043,-0.0436,-0.0316,-0.034,-0.0305,-0.0254,-0.0228,-0.0214,-0.0192,-0.0438,-0.0437,-0.0436,-0.0436,0,0,-0.0581,-0.0597,-0.0606,-0.0616,-0.061,-0.0609,-0.0609,-0.0605,-0.0597,-0.0559,-0.0593,-0.0503,-0.0492,-0.0392,-0.0416,-0.0426,-0.0382,-0.0392,-0.0276,-0.0259,-0.0243,-0.0225,-0.0205,-0.0435,-0.0435,-0.0435,-0.0434,0,-0.0564,-0.0581,-0.0599,-0.0602,-0.0607,-0.0596,-0.0603,-0.0598,-0.0586,-0.0588,-0.0553,-0.0519,-0.0507,-0.0444,-0.0416,-0.0427,-0.0361,-0.0444,-0.0406,-0.0277,-0.0261,-0.0246,-0.0226,-0.0209,-0.0433,-0.0433,-0.0433,0,-0.0535,-0.0541,-0.0554,-0.0567,-0.0566,-0.0568,-0.0552,-0.0564,-0.0555,-0.0523,-0.0514,-0.0498,-0.0454,-0.0435,-0.0425,-0.0408,-0.0327,-0.0387,-0.039,-0.0343,-0.0206,-0.019,-0.0176,-0.035,-0.035,-0.035,0,0,-0.052,-0.0542,-0.0538,-0.0562,-0.0563,-0.0552,-0.0555,-0.0547,-0.0536,-0.0532,-0.0507,-0.0477,-0.045,-0.043,-0.0411,-0.0393,-0.0326,-0.0378,-0.0382,-0.0385,-0.0342,-0.0206,-0.0192,-0.0349,-0.0349,-0.0349,0,0,-0.0507,-0.0513,-0.0511,-0.0536,-0.0538,-0.0524,-0.0535,-0.0525,-0.0517,-0.0514,-0.047,-0.046,-0.0449,-0.0423,-0.0419,-0.0383,-0.0366,-0.0367,-0.0393,-0.0397,-0.0401,-0.0352,-0.0366,0,0,0,0,0,-0.0489,-0.0514,-0.0512,-0.0515,-0.0522,-0.0529,-0.0528,-0.0514,-0.0503,-0.0513,-0.0491,-0.0453,-0.0412,-0.0408,-0.04,-0.0385,-0.034,-0.0341,-0.0343,-0.0374,-0.0379,-0.0383,0,0,0,0,0,0,-0.0491,-0.0495,-0.0511,-0.05,-0.0502,-0.0528,-0.05,-0.0496,-0.0501,-0.0499,-0.0461,-0.0452,-0.0419,-0.0409,-0.0402,-0.0389,-0.0368,-0.034,-0.0342,-0.0343,-0.0375,-0.038,-0.0383,0,0,0,0,0,-0.0491,-0.0495,-0.0514,-0.0499,-0.0501,-0.0487,-0.0499,-0.0496,-0.05,-0.0456,-0.0449,-0.0491,-0.042,-0.0411,-0.0405,-0.0393,-0.0373,-0.037,-0.0341,-0.0342,-0.0343,-0.0377,0,0,0,0,0,0,-0.0492,-0.0487,-0.0513,-0.0513,-0.0493,-0.0486,-0.0485,-0.0496,-0.0456,-0.045,-0.0483,-0.0481,-0.0421,-0.0414,-0.0408,-0.0396,-0.0376,-0.0374,-0.0372,-0.0342,-0.0343,-0.0344,0,0,0,0,0,0,-0.0485,-0.0487,-0.0513,-0.0506,-0.0504,-0.0484,-0.0484,-0.0462,-0.0454,-0.0484,-0.0482,-0.0482,-0.0418,-0.0416,-0.0411,-0.0378,-0.0379,-0.0377,-0.0375,-0.0374,-0.0343,-0.0343,0,0,0,0,0,0,-0.0485,-0.0487,-0.0506,-0.0505,-0.0503,-0.0492,-0.0462,-0.0462,-0.0476,-0.0485,-0.0474,-0.0473,-0.042,-0.0415,-0.0413,-0.0383,-0.0379,-0.0379,-0.0377,-0.0376,-0.0375,0,0,0,0,0,0,0,-0.0485,-0.0483,-0.0519,-0.0504,-0.0502,-0.0506,-0.0505,-0.0505,-0.0475,-0.0475,-0.0474,-0.0473,-0.0392,-0.039,-0.0387,-0.0386,0,0,-0.0379,-0.0378,0,0,0,0,0,0,0,0,-0.0482,-0.0483,-0.0519,-0.0519,-0.0519,-0.0506,-0.0505,-0.0505,-0.0475,-0.0475,-0.0474,-0.0474,-0.0391,-0.0389,-0.0387,0,0,0,0,0,0,0,0,0,0,0,0,0,0,0,-0.0519,-0.0519,0,-0.0506,-0.0505,-0.0505,-0.0475,-0.0475,-0.0474,-0.0474,-0.0391,-0.0389,-0.0387,0,0,0,0,0,0,0,0,0,0,0,0,0,0,0,0,0,0,0,0,0,0,0,0,0,0,0,0,0,0,0,0,0,0,0,0,0,0,0,0,0,0,0,0,0,0,0,0,0,0,0,0,0,0,0,0,0,0,0,0,0,0,0,0,0,0,0,0,0]}]]]